QPF
0.02 0.02 0.02 0.02 0.02 0.02 0.01 0.01 0.01 0.01 0.00 0.00 0.00 0.00 0.00 0.00 0.00 0.00 0.01 0.01 0.01 0.01 0.01 0.01 0.02 0.02 0.03 0.03 0.03 0.04 0.05 0.06 0.07 0.07 0.08 0.09 0.10 0.10
0.01 0.02 0.02 0.01 0.01 0.02 0.02 0.01 0.01 0.01 0.01 0.00 0.00 0.00 0.00 0.00 0.00 0.00 0.01 0.01 0.01 0.02 0.02 0.02 0.02 0.02 0.03 0.03 0.03 0.03 0.03 0.04 0.05 0.06 0.07 0.09 0.10 0.11
0.00 0.01 0.01 0.01 0.01 0.01 0.01 0.01 0.02 0.02 0.02 0.01 0.01 0.00 0.00 0.00 0.01 0.00 0.01 0.01 0.01 0.01 0.02 0.02 0.02 0.02 0.02 0.03 0.03 0.03 0.03 0.03 0.04 0.05 0.06 0.08 0.10 0.11
0.00 0.00 0.00 0.01 0.01 0.01 0.01 0.01 0.01 0.02 0.01 0.01 0.01 0.01 0.01 0.01 0.01 0.01 0.00 0.00 0.01 0.01 0.01 0.02 0.02 0.03 0.04 0.03 0.03 0.02 0.02 0.02 0.02 0.03 0.04 0.05 0.08 0.09
0.00 0.00 0.00 0.00 0.00 0.00 0.00 0.01 0.01 0.01 0.01 0.01 0.01 0.01 0.01 0.01 0.01 0.00 0.01 0.01 0.01 0.01 0.01 0.01 0.01 0.02 0.03 0.03 0.03 0.02 0.02 0.02 0.01 0.02 0.02 0.03 0.04 0.05
0.00 0.00 0.00 0.00 0.00 0.00 0.00 0.00 0.00 0.01 0.01 0.01 0.01 0.01 0.01 0.00 0.00 0.00 0.01 0.01 0.01 0.01 0.01 0.01 0.01 0.02 0.02 0.02 0.02 0.02 0.02 0.02 0.02 0.02 0.02 0.03 0.03 0.03
0.00 0.00 0.00 0.00 0.00 0.00 0.00 0.00 0.00 0.00 0.01 0.01 0.01 0.01 0.01 0.00 0.00 0.00 0.00 0.00 0.00 0.01 0.01 0.02 0.01 0.01 0.01 0.01 0.02 0.03 0.02 0.02 0.02 0.02 0.02 0.02 0.03 0.03
0.00 0.00 0.00 0.00 0.00 0.00 0.00 0.00 0.00 0.00 0.00 0.00 0.00 0.00 0.00 0.00 0.00 0.00 0.00 0.00 0.00 0.01 0.01 0.01 0.01 0.01 0.01 0.01 0.01 0.02 0.02 0.02 0.02 0.02 0.02 0.02 0.02 0.03
0.00 0.00 0.00 0.00 0.00 0.00 0.00 0.00 0.00 0.00 0.00 0.00 0.00 0.00 0.00 0.00 0.00 0.00 0.00 0.00 0.00 0.00 0.01 0.01 0.01 0.01 0.01 0.01 0.01 0.01 0.01 0.01 0.02 0.02 0.02 0.02 0.02 0.02
0.00 0.00 0.00 0.00 0.00 0.00 0.00 0.00 0.00 0.00 0.00 0.00 0.00 0.00 0.00 0.00 0.00 0.00 0.00 0.00 0.00 0.00 0.00 0.00 0.00 0.00 0.00 0.01 0.01 0.01 0.01 0.01 0.01 0.01 0.01 0.01 0.01 0.01
0.00 0.00 0.00 0.00 0.00 0.00 0.00 0.00 0.00 0.00 0.00 0.00 0.00 0.00 0.00 0.00 0.00 0.00 0.00 0.00 0.01 0.00 0.00 0.00 0.00 0.00 0.00 0.00 0.00 0.00 0.00 0.00 0.00 0.00 0.00 0.00 0.00 0.00
0.00 0.00 0.00 0.00 0.00 0.00 0.00 0.00 0.00 0.00 0.00 0.00 0.00 0.00 0.00 0.00 0.00 0.00 0.00 0.01 0.01 0.01 0.00 0.00 0.01 0.01 0.01 0.01 0.00 0.00 0.00 0.00 0.00 0.00 0.00 0.00 0.00 0.00
0.00 0.00 0.00 0.00 0.01 0.01 0.01 0.00 0.00 0.00 0.00 0.00 0.00 0.00 0.01 0.01 0.01 0.01 0.01 0.01 0.01 0.01 0.01 0.01 0.01 0.01 0.01 0.01 0.00 0.00 0.00 0.00 0.00 0.00 0.00 0.00 0.00 0.00
0.01 0.01 0.01 0.01 0.01 0.01 0.01 0.01 0.01 0.00 0.00 0.00 0.00 0.00 0.00 0.00 0.00 0.00 0.00 0.00 0.01 0.01 0.00 0.01 0.01 0.01 0.02 0.01 0.00 0.00 0.00 0.00 0.00 0.00 0.00 0.00 0.00 0.00
0.01 0.01 0.01 0.01 0.01 0.01 0.01 0.01 0.01 0.00 0.00 0.00 0.00 0.00 0.00 0.00 0.00 0.00 0.00 0.00 0.00 0.00 0.00 0.00 0.00 0.01 0.01 0.02 0.01 0.00 0.00 0.00 0.00 0.00 0.00 0.00 0.00 0.00
0.01 0.01 0.01 0.01 0.01 0.01 0.01 0.01 0.00 0.00 0.00 0.00 0.00 0.00 0.00 0.00 0.00 0.00 0.00 0.00 0.00 0.00 0.00 0.00 0.00 0.00 0.01 0.01 0.01 0.01 0.00 0.00 0.00 0.00 0.00 0.00 0.00 0.00
0.01 0.01 0.01 0.01 0.01 0.01 0.01 0.01 0.01 0.01 0.00 0.00 0.00 0.00 0.00 0.00 0.00 0.00 0.00 0.00 0.00 0.00 0.00 0.00 0.00 0.00 0.00 0.01 0.01 0.00 0.00 0.00 0.00 0.00 0.00 0.00 0.00 0.00
0.02 0.02 0.01 0.01 0.01 0.01 0.01 0.01 0.01 0.01 0.00 0.00 0.00 0.00 0.00 0.00 0.00 0.00 0.00 0.00 0.00 0.00 0.00 0.00 0.00 0.00 0.00 0.00 0.00 0.00 0.00 0.00 0.00 0.00 0.01 0.01 0.00 0.00
0.02 0.01 0.01 0.01 0.01 0.01 0.01 0.01 0.01 0.01 0.01 0.01 0.00 0.00 0.00 0.00 0.00 0.00 0.00 0.00 0.00 0.00 0.00 0.00 0.00 0.01 0.01 0.01 0.00 0.00 0.01 0.01 0.00 0.00 0.00 0.01 0.01 0.00
0.01 0.01 0.00 0.00 0.01 0.01 0.01 0.01 0.01 0.01 0.01 0.01 0.01 0.01 0.00 0.00 0.00 0.00 0.00 0.00 0.00 0.00 0.00 0.00 0.00 0.01 0.03 0.02 0.02 0.00 0.01 0.01 0.01 0.01 0.00 0.00 0.00 0.00
0.01 0.01 0.01 0.01 0.01 0.01 0.01 0.01 0.01 0.01 0.01 0.01 0.01 0.01 0.00 0.00 0.00 0.00 0.00 0.00 0.00 0.00 0.00 0.00 0.00 0.01 0.02 0.02 0.02 0.00 0.00 0.01 0.02 0.02 0.02 0.02 0.01 0.01
0.01 0.01 0.01 0.01 0.01 0.01 0.01 0.01 0.01 0.01 0.01 0.01 0.01 0.01 0.00 0.00 0.01 0.00 0.00 0.01 0.01 0.01 0.00 0.00 0.00 0.00 0.01 0.02 0.01 0.01 0.00 0.00 0.01 0.01 0.01 0.03 0.05 0.05
0.01 0.01 0.01 0.01 0.01 0.01 0.01 0.01 0.01 0.01 0.01 0.01 0.01 0.01 0.01 0.01 0.01 0.01 0.01 0.01 0.01 0.01 0.00 0.00 0.00 0.00 0.01 0.01 0.01 0.01 0.01 0.01 0.01 0.01 0.00 0.01 0.01 0.02
MSLP
1023.36 1023.44 1023.51 1023.55 1023.54 1023.49 1023.39 1023.25 1023.07 1022.89 1022.69 1022.49 1022.29 1022.07 1021.82 1021.53 1021.19 1020.79 1020.35 1019.86 1019.37 1018.87 1018.40 1017.97 1017.57 1017.21 1016.87 1016.55 1016.22 1015.88 1015.51 1015.12 1014.70 1014.27 1013.82 1013.36 1012.90 1012.43
1023.28 1023.37 1023.45 1023.50 1023.52 1023.48 1023.41 1023.29 1023.15 1022.98 1022.80 1022.61 1022.40 1022.18 1021.92 1021.61 1021.25 1020.85 1020.39 1019.91 1019.41 1018.92 1018.46 1018.03 1017.63 1017.26 1016.91 1016.56 1016.22 1015.86 1015.48 1015.08 1014.66 1014.23 1013.80 1013.36 1012.91 1012.46
1022.97 1023.07 1023.16 1023.24 1023.28 1023.28 1023.25 1023.18 1023.08 1022.96 1022.82 1022.66 1022.47 1022.25 1021.98 1021.66 1021.28 1020.86 1020.39 1019.90 1019.40 1018.90 1018.44 1018.00 1017.59 1017.22 1016.86 1016.50 1016.15 1015.78 1015.40 1015.01 1014.60 1014.19 1013.77 1013.35 1012.92 1012.49
1022.50 1022.61 1022.72 1022.81 1022.89 1022.93 1022.95 1022.94 1022.90 1022.84 1022.75 1022.63 1022.46 1022.25 1021.99 1021.66 1021.28 1020.84 1020.36 1019.85 1019.34 1018.84 1018.37 1017.92 1017.50 1017.11 1016.74 1016.37 1016.01 1015.64 1015.27 1014.89 1014.50 1014.12 1013.72 1013.33 1012.92 1012.50
1021.93 1022.06 1022.19 1022.31 1022.41 1022.50 1022.57 1022.61 1022.63 1022.62 1022.58 1022.51 1022.38 1022.19 1021.94 1021.62 1021.23 1020.78 1020.30 1019.79 1019.27 1018.76 1018.28 1017.82 1017.38 1016.97 1016.58 1016.20 1015.82 1015.45 1015.08 1014.72 1014.35 1013.99 1013.63 1013.26 1012.88 1012.47
1021.33 1021.48 1021.63 1021.77 1021.91 1022.03 1022.13 1022.21 1022.28 1022.32 1022.32 1022.29 1022.19 1022.04 1021.81 1021.51 1021.14 1020.71 1020.23 1019.72 1019.21 1018.70 1018.20 1017.72 1017.27 1016.83 1016.41 1016.00 1015.61 1015.22 1014.85 1014.49 1014.14 1013.80 1013.47 1013.12 1012.76 1012.37
1020.74 1020.91 1021.09 1021.25 1021.40 1021.53 1021.66 1021.76 1021.85 1021.92 1021.96 1021.96 1021.91 1021.79 1021.60 1021.33 1020.99 1020.59 1020.15 1019.66 1019.16 1018.66 1018.16 1017.67 1017.19 1016.72 1016.26 1015.82 1015.39 1014.98 1014.59 1014.22 1013.88 1013.55 1013.24 1012.91 1012.57 1012.20
1020.18 1020.38 1020.57 1020.74 1020.90 1021.03 1021.15 1021.26 1021.36 1021.44 1021.50 1021.53 1021.51 1021.44 1021.29 1021.08 1020.80 1020.45 1020.05 1019.61 1019.14 1018.66 1018.16 1017.66 1017.16 1016.66 1016.17 1015.68 1015.20 1014.76 1014.33 1013.95 1013.59 1013.26 1012.95 1012.63 1012.30 1011.94
1019.65 1019.87 1020.07 1020.24 1020.39 1020.51 1020.62 1020.71 1020.80 1020.89 1020.96 1021.01 1021.03 1021.00 1020.91 1020.76 1020.55 1020.27 1019.93 1019.55 1019.13 1018.68 1018.21 1017.71 1017.20 1016.67 1016.13 1015.60 1015.08 1014.58 1014.11 1013.69 1013.30 1012.95 1012.63 1012.31 1011.98 1011.63
1019.13 1019.36 1019.56 1019.72 1019.85 1019.96 1020.04 1020.11 1020.19 1020.27 1020.34 1020.41 1020.46 1020.48 1020.46 1020.38 1020.24 1020.04 1019.79 1019.48 1019.12 1018.71 1018.27 1017.79 1017.27 1016.72 1016.16 1015.58 1015.01 1014.46 1013.94 1013.46 1013.04 1012.65 1012.30 1011.97 1011.64 1011.29
1018.62 1018.85 1019.04 1019.19 1019.30 1019.37 1019.43 1019.49 1019.54 1019.62 1019.70 1019.79 1019.87 1019.94 1019.97 1019.96 1019.90 1019.78 1019.60 1019.37 1019.07 1018.72 1018.32 1017.86 1017.35 1016.80 1016.21 1015.61 1014.99 1014.39 1013.82 1013.29 1012.81 1012.38 1011.99 1011.63 1011.28 1010.93
1018.10 1018.31 1018.49 1018.63 1018.72 1018.78 1018.82 1018.86 1018.91 1018.98 1019.07 1019.17 1019.28 1019.39 1019.48 1019.53 1019.54 1019.49 1019.38 1019.21 1018.98 1018.68 1018.31 1017.89 1017.40 1016.85 1016.26 1015.63 1014.98 1014.34 1013.71 1013.13 1012.59 1012.11 1011.68 1011.29 1010.92 1010.55
1017.57 1017.77 1017.94 1018.06 1018.15 1018.21 1018.24 1018.28 1018.33 1018.40 1018.49 1018.61 1018.75 1018.89 1019.02 1019.11 1019.17 1019.18 1019.12 1019.01 1018.82 1018.57 1018.24 1017.84 1017.37 1016.84 1016.24 1015.60 1014.93 1014.26 1013.59 1012.96 1012.37 1011.83 1011.35 1010.92 1010.52 1010.14
1017.02 1017.22 1017.39 1017.52 1017.61 1017.67 1017.72 1017.76 1017.82 1017.90 1018.01 1018.14 1018.30 1018.46 1018.61 1018.74 1018.83 1018.87 1018.85 1018.76 1018.61 1018.39 1018.08 1017.71 1017.26 1016.73 1016.14 1015.50 1014.81 1014.11 1013.41 1012.73 1012.09 1011.51 1010.97 1010.50 1010.06 1009.66
1016.47 1016.67 1016.85 1017.00 1017.11 1017.19 1017.26 1017.32 1017.39 1017.49 1017.61 1017.76 1017.92 1018.10 1018.27 1018.41 1018.51 1018.57 1018.57 1018.50 1018.36 1018.14 1017.85 1017.49 1017.04 1016.52 1015.93 1015.28 1014.59 1013.87 1013.14 1012.42 1011.74 1011.10 1010.52 1009.99 1009.52 1009.10
1015.91 1016.12 1016.32 1016.50 1016.64 1016.75 1016.84 1016.93 1017.03 1017.14 1017.28 1017.44 1017.62 1017.80 1017.98 1018.13 1018.24 1018.30 1018.30 1018.23 1018.09 1017.87 1017.57 1017.20 1016.75 1016.22 1015.62 1014.97 1014.26 1013.52 1012.76 1012.01 1011.29 1010.61 1009.98 1009.41 1008.89 1008.43
1015.32 1015.56 1015.79 1015.99 1016.17 1016.31 1016.43 1016.55 1016.67 1016.80 1016.96 1017.14 1017.34 1017.54 1017.72 1017.88 1018.00 1018.06 1018.05 1017.97 1017.81 1017.58 1017.26 1016.86 1016.39 1015.85 1015.23 1014.56 1013.84 1013.08 1012.30 1011.53 1010.77 1010.04 1009.37 1008.75 1008.19 1007.69
1014.69 1014.95 1015.21 1015.44 1015.64 1015.81 1015.97 1016.11 1016.25 1016.42 1016.60 1016.81 1017.03 1017.25 1017.46 1017.64 1017.77 1017.83 1017.82 1017.73 1017.55 1017.28 1016.93 1016.50 1016.00 1015.43 1014.79 1014.09 1013.35 1012.58 1011.79 1010.99 1010.21 1009.45 1008.74 1008.07 1007.46 1006.91
1014.00 1014.28 1014.55 1014.80 1015.02 1015.21 1015.38 1015.55 1015.73 1015.92 1016.14 1016.39 1016.65 1016.91 1017.16 1017.37 1017.52 1017.60 1017.59 1017.48 1017.28 1016.98 1016.60 1016.13 1015.59 1014.98 1014.31 1013.60 1012.85 1012.06 1011.27 1010.46 1009.66 1008.89 1008.14 1007.44 1006.78 1006.17
1013.24 1013.52 1013.79 1014.04 1014.27 1014.47 1014.66 1014.85 1015.06 1015.29 1015.56 1015.85 1016.17 1016.49 1016.78 1017.04 1017.22 1017.32 1017.32 1017.21 1016.99 1016.66 1016.24 1015.73 1015.15 1014.51 1013.82 1013.10 1012.34 1011.56 1010.77 1009.98 1009.19 1008.40 1007.64 1006.91 1006.21 1005.55
1012.43 1012.69 1012.94 1013.17 1013.39 1013.59 1013.78 1014.00 1014.24 1014.52 1014.85 1015.20 1015.59 1015.97 1016.33 1016.63 1016.85 1016.98 1016.99 1016.87 1016.63 1016.28 1015.83 1015.29 1014.68 1014.02 1013.32 1012.59 1011.85 1011.10 1010.34 1009.58 1008.81 1008.05 1007.29 1006.55 1005.81 1005.11
1011.58 1011.80 1012.01 1012.21 1012.40 1012.59 1012.80 1013.04 1013.32 1013.65 1014.04 1014.47 1014.92 1015.37 1015.79 1016.14 1016.40 1016.55 1016.57 1016.45 1016.19 1015.82 1015.34 1014.77 1014.15 1013.49 1012.80 1012.10 1011.39 1010.69 1009.98 1009.28 1008.56 1007.84 1007.11 1006.37 1005.63 1004.89
1010.71 1010.87 1011.04 1011.20 1011.36 1011.54 1011.76 1012.02 1012.35 1012.74 1013.19 1013.68 1014.20 1014.71 1015.18 1015.57 1015.86 1016.02 1016.04 1015.91 1015.64 1015.25 1014.75 1014.18 1013.56 1012.91 1012.26 1011.61 1010.97 1010.34 1009.71 1009.09 1008.45 1007.79 1007.11 1006.40 1005.66 1004.90
Thickness
5540 5538 5537 5535 5534 5533 5531 5530 5530 5532 5534 5531 5528 5527 5525 5524 5523 5523 5522 5523 5523 5523 5523 5523 5522 5522 5522 5521 5521 5521 5522 5524 5525 5527 5529 5532 5535 5537
5529 5527 5525 5524 5522 5521 5519 5517 5516 5516 5518 5518 5514 5512 5512 5511 5511 5510 5509 5509 5509 5509 5509 5509 5508 5507 5507 5506 5506 5507 5507 5509 5510 5512 5515 5517 5520 5522
5517 5516 5514 5512 5510 5508 5507 5505 5503 5502 5503 5503 5501 5500 5499 5498 5497 5497 5496 5496 5495 5495 5495 5495 5494 5494 5493 5492 5491 5492 5493 5494 5496 5498 5499 5501 5504 5507
5505 5503 5502 5500 5498 5496 5494 5492 5491 5489 5488 5489 5488 5486 5485 5484 5483 5482 5482 5481 5481 5481 5481 5481 5480 5479 5478 5477 5477 5477 5478 5479 5481 5483 5485 5487 5489 5491
5494 5491 5489 5487 5485 5483 5481 5479 5478 5477 5475 5474 5474 5472 5471 5470 5469 5468 5468 5467 5467 5467 5466 5466 5465 5465 5464 5464 5463 5463 5463 5464 5466 5468 5470 5471 5474 5476
5482 5480 5478 5475 5474 5471 5470 5467 5465 5463 5462 5461 5460 5458 5456 5455 5454 5453 5453 5453 5453 5452 5451 5451 5450 5449 5449 5448 5448 5448 5449 5449 5450 5453 5455 5457 5459 5462
5471 5469 5467 5465 5463 5460 5458 5455 5453 5451 5449 5448 5446 5444 5442 5440 5438 5437 5437 5437 5438 5437 5436 5436 5435 5434 5433 5432 5432 5432 5434 5434 5435 5438 5440 5442 5445 5447
5460 5457 5455 5453 5451 5450 5448 5445 5443 5440 5437 5435 5433 5430 5428 5425 5423 5422 5420 5421 5422 5422 5420 5421 5420 5419 5418 5417 5416 5417 5418 5419 5420 5422 5424 5426 5429 5431
5449 5446 5445 5443 5440 5437 5435 5433 5431 5428 5426 5423 5419 5417 5414 5412 5409 5407 5405 5403 5403 5404 5403 5406 5404 5402 5402 5401 5400 5401 5402 5402 5404 5406 5408 5411 5413 5416
5439 5436 5433 5430 5428 5425 5422 5419 5416 5414 5413 5410 5407 5404 5401 5399 5396 5394 5391 5390 5390 5388 5386 5387 5388 5387 5388 5386 5385 5385 5385 5386 5388 5390 5392 5395 5397 5400
5428 5425 5422 5419 5417 5415 5412 5408 5405 5402 5400 5398 5395 5392 5389 5386 5384 5380 5377 5376 5376 5375 5371 5370 5372 5373 5374 5373 5371 5370 5370 5370 5372 5374 5377 5379 5382 5385
5418 5415 5413 5410 5407 5405 5401 5397 5394 5390 5388 5385 5382 5379 5376 5373 5370 5366 5363 5360 5358 5358 5357 5355 5355 5354 5359 5361 5358 5356 5356 5356 5358 5359 5362 5364 5367 5370
5408 5404 5401 5400 5398 5395 5392 5387 5384 5381 5377 5373 5369 5366 5363 5360 5357 5353 5350 5347 5344 5342 5342 5340 5339 5337 5336 5343 5347 5345 5344 5344 5345 5346 5348 5351 5353 5355
5400 5396 5393 5390 5388 5385 5381 5378 5375 5371 5366 5362 5358 5355 5351 5348 5345 5342 5339 5336 5333 5331 5330 5327 5325 5323 5323 5325 5330 5334 5333 5333 5334 5336 5337 5340 5342 5343
5391 5388 5384 5381 5378 5374 5371 5368 5364 5359 5355 5351 5348 5344 5341 5337 5335 5332 5329 5327 5324 5322 5320 5318 5314 5312 5310 5310 5315 5319 5321 5325 5324 5325 5326 5328 5330 5333
5381 5378 5375 5372 5368 5364 5361 5357 5353 5349 5345 5342 5338 5334 5331 5327 5324 5322 5319 5317 5315 5313 5311 5308 5305 5302 5301 5302 5302 5306 5308 5309 5315 5315 5316 5319 5321 5323
5371 5366 5363 5359 5356 5353 5349 5346 5343 5339 5336 5332 5328 5325 5321 5318 5314 5311 5308 5305 5303 5302 5301 5300 5297 5295 5295 5294 5295 5298 5300 5302 5303 5304 5307 5311 5315 5316
5362 5358 5354 5351 5348 5344 5341 5337 5334 5331 5327 5323 5319 5315 5312 5308 5304 5301 5298 5295 5293 5292 5290 5289 5288 5288 5289 5291 5290 5290 5291 5293 5295 5296 5296 5299 5307 5310
5354 5350 5346 5343 5340 5336 5333 5329 5326 5323 5319 5315 5311 5307 5303 5299 5295 5292 5289 5286 5284 5282 5281 5279 5276 5274 5276 5281 5286 5284 5282 5284 5286 5288 5290 5291 5295 5302
5346 5343 5339 5336 5332 5329 5326 5322 5319 5315 5311 5307 5303 5299 5294 5290 5286 5283 5280 5277 5275 5274 5273 5271 5269 5266 5265 5267 5272 5277 5277 5276 5278 5280 5283 5286 5290 5296
5338 5335 5332 5329 5326 5322 5319 5315 5311 5308 5304 5300 5295 5291 5287 5282 5278 5275 5272 5271 5269 5266 5265 5265 5264 5263 5261 5260 5263 5270 5274 5273 5271 5272 5275 5278 5284 5289
5332 5329 5326 5323 5320 5316 5312 5308 5304 5301 5297 5293 5289 5284 5280 5276 5272 5269 5266 5263 5262 5260 5259 5259 5259 5257 5255 5254 5256 5261 5266 5270 5271 5271 5271 5271 5271 5277
5325 5322 5320 5317 5314 5310 5306 5302 5298 5294 5291 5286 5282 5278 5273 5269 5266 5263 5260 5258 5256 5254 5253 5253 5253 5252 5251 5250 5250 5253 5257 5261 5265 5268 5272 5272 5271 5273